Regional Weather Roundup
Issued by NWS

Home | Current Version | Previous Version | Text Only | Print | Product List | Glossary On
Versions: 1 2 3 4 5 6 7 8 9 10 11 12 13 14 15 16 17 18 19 20 21 22 23 24 25 26 27 28 29 30 31 32 33 34 35 36 37 38 39 40 41 42 43 44 45 46 47 48 49 50
000
ASCA42 TJSJ 181711
RWRPR
PUERTO RICO/U.S. VIRGIN ISLANDS HOURLY WEATHER ROUNDUP
NATIONAL WEATHER SERVICE SAN JUAN PR
100 PM AST THU DEC 18 2014

PRZ001-004-181800-
PUERTO RICO

CITY           SKY/WX    TMP DP  RH WIND       PRES   REMARKS
SAN JUAN LMM   PTSUNNY   82  72  69 N15       30.02F
MAYAGUEZ       PTSUNNY   81  68  65 E13       30.04F
AGUADILLA      PTSUNNY   79  66  65 E18G25    30.04F
$$

PRZ006-007-181800-
U.S. VIRGIN ISLANDS

CITY           SKY/WX    TMP DP  RH WIND       PRES   REMARKS
$$

HOURLY WEATHER ROUNDUP FOR THE NEWS MEDIA

CITY           SKY/WX    TMP DP  RH WIND       PRES   REMARKS
MIAMI          PTSUNNY   74  59  59 VRB3      30.16F
ORLANDO        SUNNY     66  46  48 NW7       30.18F
NEW YORK       PTSUNNY   42  22  44 W17G26    29.98F
NEWARK         PTSUNNY   41  23  48 W14G23    29.98F
CHICAGO        CLOUDY    25  16  68 W7        30.28F WCI  17
HARTFORD       SUNNY     44  28  53 W18G26    29.78F
BOSTON         PTSUNNY   43  30  60 W20G26    29.77S
DALLAS         CLOUDY    47  44  90 CALM      30.18R FOG
PHILADELPHIA   CLOUDY    38  22  52 W16G24    30.08F WCI  29


USA.gov is the U.S. government's official web portal to all federal, state and local government web resources and services.